"Pseudo-MPEC" for P21JpZh

Created 2023 Oct 1 2:22:12 UT using Find_Orb

Click here for an explanation of pseudo-MPECs

 
 Astrometry: 
     P21JpZh* C2023 09 13$dt)Xn9q3yx%nc]((FuM:AstrometryWcA[wAfXyPR]b2Q!]T[w#F52
     P21JpZh  C2023 09 13DZredacted;_ZZB.NSKp5kUZE+2(Hxclick3#[here,X)for[;tAF52
     P21JpZh  C2023 09 13xTd`)=2S,hx;ICexplanationG5%I49LIE*@(?[F9En@+Q8q*x`(F52
     P21JpZh 1C2023 09 18.00458 00 27 34.60 +13 45 22.3    ~9I17 22.0 VXNEOCP033
     P21JpZh 1C2023 09 18.00816 00 27 34.44 +13 45 11.5    ~9I17 22.0 VXNEOCP033
     P21JpZh 1C2023 09 18.01175 00 27 34.27 +13 45 00.7    ~9I17 21.5 VXNEOCP033

Station data:
(033) Karl Schwarzschild Observatory, Tautenburg  (N50.980137 E11.711240)
   Germany.  Observer B. Stecklum. 1.34-m f/3 Schmidt + CCD.
(F52) Pan-STARRS 2, Haleakala  (N20.707382 W156.255910)  US/Hawaii.
   Observers J. Bulger, T. Dukes, T. Lowe, A. Schultz, M. Willman. Measurers
   K. Chambers, S. Chastel, T. de Boer, L. Denneau, J. Fairlamb, H.
   Flewelling, M. Huber, C.-C. Lin, E. Magnier, Y. Ramanjooloo, R. Wainscoat,
   R. Weryk. 1.8-m Ritchey-Chrétien + CCD.

Orbital elements:  P21JpZh
   Perihelion 2023 Jul 12.04528 +/- 0.95 TT =  1:05:11 (JD 2460137.54528)
Epoch 2023 Sep 18.0 TT = JDT 2460205.5   Earth MOID: 0.1850   Ma: 0.0364
M  10.35913879 +/- 4.9              (J2000 ecliptic)             AutoNEOCP
n   0.15244177 +/- 0.0722           Peri.   97.01292 +/- 0.15
a   3.47056391 +/- 1.1              Node   190.11245 +/- 0.29
e   0.7195942 +/- 0.0897            Incl.   14.00529 +/- 1.8
P   6.47                   H 22.32  G  0.15   U 11.0
q 0.97316605 +/- 0.00746    Q 5.96796178 +/- 2.2
From 6 observations 2023 Sept. 13-18; mean residual 0".15
Residuals in arcseconds: 
230913 F52  .04-  .01+    230913 F52  .00   .01+    230918 033  .05+  .01-    
230913 F52  .04+  .02-    230918 033  .34+  .04-    230918 033  .39-  .05+    

Ephemerides (geocentric):
Date (UTC) HH   RA             Dec           delta  r     elong  mag " sig PA
---- --------  ------------   ------------  ------ ------ -----  --- --------
2023 10 01 02  00 21 13.545   +04 46 19.10  .48520 1.4863 177.7 21.8 61.3 135
2023 10 01 03  00 21 12.567   +04 44 57.96  .48561 1.4867 177.7 21.8 61.5 135
2023 10 01 04  00 21 11.590   +04 43 36.95  .48601 1.4871 177.7 21.8 61.8 135
2023 10 01 05  00 21 10.616   +04 42 16.07  .48641 1.4875 177.7 21.8 62.1 135
2023 10 01 06  00 21 09.643   +04 40 55.32  .48682 1.4879 177.7 21.8 62.4 135
2023 10 01 07  00 21 08.673   +04 39 34.70  .48722 1.4883 177.7 21.8 62.7 135
2023 10 01 08  00 21 07.704   +04 38 14.21  .48763 1.4887 177.7 21.8 63.0 136
2023 10 01 09  00 21 06.737   +04 36 53.84  .48803 1.4890 177.7 21.8 63.2 136
2023 10 01 10  00 21 05.772   +04 35 33.61  .48844 1.4894 177.7 21.8 63.5 136
2023 10 01 11  00 21 04.810   +04 34 13.50  .48885 1.4898 177.7 21.8 63.8 136
2023 10 01 12  00 21 03.849   +04 32 53.53  .48925 1.4902 177.6 21.8 64.1 136
2023 10 01 13  00 21 02.889   +04 31 33.68  .48966 1.4906 177.6 21.8 64.4 136
2023 10 01 14  00 21 01.932   +04 30 13.96  .49007 1.4910 177.6 21.8 64.7 136
2023 10 01 15  00 21 00.977   +04 28 54.37  .49047 1.4914 177.6 21.9 65.0 137
2023 10 01 16  00 21 00.024   +04 27 34.90  .49088 1.4918 177.6 21.9 65.2 137
2023 10 01 17  00 20 59.073   +04 26 15.57  .49129 1.4922 177.6 21.9 65.5 137
2023 10 01 18  00 20 58.123   +04 24 56.36  .49170 1.4926 177.6 21.9 65.8 137
2023 10 01 19  00 20 57.176   +04 23 37.28  .49211 1.4930 177.6 21.9 66.1 137
2023 10 01 20  00 20 56.231   +04 22 18.33  .49252 1.4934 177.5 21.9 66.4 137
2023 10 01 21  00 20 55.287   +04 20 59.51  .49293 1.4938 177.5 21.9 66.7 137
2023 10 01 22  00 20 54.346   +04 19 40.81  .49334 1.4942 177.5 21.9 67.0 137
2023 10 01 23  00 20 53.406   +04 18 22.24  .49375 1.4945 177.5 21.9 67.3 138
2023 10 02 00  00 20 52.469   +04 17 03.80  .49416 1.4949 177.5 21.9 67.6 138
2023 10 02 01  00 20 51.533   +04 15 45.49  .49457 1.4953 177.4 21.9 67.9 138
2023 10 02 02  00 20 50.600   +04 14 27.30  .49498 1.4957 177.4 21.9 68.2 138
2023 10 02 03  00 20 49.668   +04 13 09.24  .49539 1.4961 177.4 21.9 68.5 138
2023 10 02 04  00 20 48.738   +04 11 51.31  .49580 1.4965 177.4 21.9 68.8 138
2023 10 02 05  00 20 47.811   +04 10 33.51  .49622 1.4969 177.3 21.9 69.1 138
2023 10 02 06  00 20 46.885   +04 09 15.83  .49663 1.4973 177.3 21.9 69.4 139
2023 10 02 07  00 20 45.961   +04 07 58.28  .49704 1.4977 177.3 21.9 69.7 139
2023 10 02 08  00 20 45.039   +04 06 40.85  .49746 1.4981 177.2 21.9 70.0 139
2023 10 02 09  00 20 44.120   +04 05 23.55  .49787 1.4985 177.2 21.9 70.3 139
2023 10 02 10  00 20 43.202   +04 04 06.38  .49829 1.4989 177.2 21.9 70.6 139
2023 10 02 11  00 20 42.286   +04 02 49.33  .49870 1.4993 177.1 21.9 70.9 139
2023 10 02 12  00 20 41.373   +04 01 32.41  .49911 1.4997 177.1 21.9 71.2 139
2023 10 02 13  00 20 40.461   +04 00 15.62  .49953 1.5001 177.1 21.9 71.5 139
2023 10 02 14  00 20 39.551   +03 58 58.95  .49995 1.5004 177.0 21.9 71.8 140
2023 10 02 15  00 20 38.643   +03 57 42.41  .50036 1.5008 177.0 21.9 72.1 140
2023 10 02 16  00 20 37.738   +03 56 25.99  .50078 1.5012 177.0 21.9 72.4 140
2023 10 02 17  00 20 36.834   +03 55 09.70  .50120 1.5016 176.9 21.9 72.7 140
2023 10 02 18  00 20 35.932   +03 53 53.53  .50161 1.5020 176.9 22.0 73.0 140
2023 10 02 19  00 20 35.033   +03 52 37.49  .50203 1.5024 176.9 22.0 73.3 140
2023 10 02 20  00 20 34.135   +03 51 21.58  .50245 1.5028 176.8 22.0 73.6 140
2023 10 02 21  00 20 33.240   +03 50 05.79  .50287 1.5032 176.8 22.0 74.0 141
2023 10 02 22  00 20 32.346   +03 48 50.12  .50328 1.5036 176.8 22.0 74.3 141
2023 10 02 23  00 20 31.454   +03 47 34.58  .50370 1.5040 176.7 22.0 74.6 141
2023 10 03 00  00 20 30.565   +03 46 19.17  .50412 1.5044 176.7 22.0 74.9 141
2023 10 03 01  00 20 29.678   +03 45 03.87  .50454 1.5048 176.6 22.0 75.2 141